Theta_e
330 319 319 314 302 301 299 304 312 312 312 312 316 315 327 330 329 320 346 354 356 359 362 363 364 364 364 363 362 361 361 361 361 361 362 363 363 362 362 361 361 361 358 356 354 352 353 354 355
322 319 316 309 298 294 300 309 310 311 313 315 316 325 330 328 336 338 343 354 357 358 359 361 364 363 363 363 362 361 361 361 361 361 361 363 363 363 362 362 361 359 355 353 352 352 353 354 353
323 319 308 303 297 296 298 309 313 315 317 316 316 330 330 331 339 338 349 355 356 355 357 362 364 363 363 363 361 361 361 361 361 361 361 362 362 362 361 361 360 358 353 351 351 352 354 354 353
314 310 307 297 295 302 306 311 314 316 317 317 326 326 334 342 339 342 351 353 352 352 360 364 364 363 363 363 362 361 361 361 361 361 362 362 362 361 361 361 359 357 354 351 351 354 354 355 355
311 306 296 295 298 306 310 314 317 317 314 315 326 325 329 338 342 343 349 350 349 353 359 362 364 364 363 363 362 361 361 361 361 361 362 362 361 360 360 360 359 357 355 353 350 351 350 350 350
302 305 293 292 300 308 312 315 315 314 315 317 320 321 325 338 339 340 344 347 348 356 358 360 364 364 363 363 362 361 360 360 360 361 361 361 360 360 360 359 358 356 354 352 351 348 346 345 344
300 299 295 298 301 305 311 318 310 311 312 312 320 314 317 329 336 340 341 345 354 356 356 358 360 363 363 362 361 361 360 360 360 359 359 360 360 359 359 358 358 356 354 351 349 347 345 344 343
304 301 296 298 300 301 310 315 314 312 313 318 318 312 308 318 331 339 340 351 354 355 353 353 356 359 358 360 362 361 360 360 359 359 359 359 359 359 359 356 356 356 354 351 349 347 345 344 344
306 296 295 298 300 304 310 305 316 317 313 315 316 317 318 319 319 316 329 337 352 354 351 351 352 353 354 356 360 361 362 361 360 360 359 357 354 354 356 355 356 356 354 352 350 348 346 345 345
299 295 297 304 305 304 307 307 306 311 312 313 314 317 318 318 315 314 314 331 338 349 349 349 349 350 350 357 356 356 358 358 357 357 356 353 349 351 353 353 356 355 354 353 351 349 348 347 334
297 296 301 304 307 308 306 305 307 305 303 309 311 313 315 315 312 312 312 313 317 338 349 347 348 348 347 348 355 354 355 355 355 354 354 352 351 350 350 347 350 348 352 346 347 344 341 335 331
295 302 303 304 306 305 303 306 306 307 306 311 310 314 312 310 309 312 313 312 313 316 338 346 346 346 345 345 351 351 352 353 353 353 353 351 349 346 346 344 344 343 344 339 337 336 335 332 330
298 300 304 306 305 304 305 305 304 304 310 311 311 313 311 310 312 310 313 313 313 319 325 346 346 346 345 344 349 348 348 350 352 352 353 353 349 347 344 343 342 342 341 338 333 333 332 331 329
300 301 302 303 302 304 301 303 304 305 308 308 308 307 309 309 309 309 312 312 316 322 326 336 349 348 347 347 347 347 346 346 347 348 350 353 351 346 343 341 341 340 340 339 332 333 331 331 332
302 297 300 301 302 300 303 299 301 305 307 305 306 308 309 309 310 309 311 315 316 318 322 324 326 354 353 348 350 356 353 347 344 345 347 349 347 343 342 341 339 340 339 337 333 330 333 334 334
297 294 289 298 302 303 301 294 302 306 305 304 305 307 309 309 309 310 313 313 314 314 318 322 332 331 337 351 352 352 355 353 349 343 344 346 346 346 343 343 340 338 339 333 335 332 333 336 335
294 288 291 295 302 301 300 294 302 306 305 304 304 305 307 307 309 310 311 313 314 317 317 321 322 330 329 330 347 354 353 352 351 349 345 345 346 346 348 344 342 341 339 340 338 336 335 333 332
290 291 293 294 300 301 297 296 301 304 304 304 304 305 306 307 309 311 311 312 317 321 321 321 323 329 333 331 339 351 353 352 349 350 349 345 346 345 346 347 341 341 341 339 338 335 336 333 334
297 295 294 297 301 298 297 297 299 302 302 302 302 304 305 306 309 311 314 318 321 322 323 323 321 326 325 324 326 338 344 349 350 350 351 347 347 346 344 345 342 342 340 338 337 334 332 334 332
298 295 293 297 301 297 295 295 299 301 301 301 303 303 305 306 308 310 315 315 315 316 318 318 320 321 323 329 326 328 335 342 349 352 350 350 349 347 345 344 343 342 340 337 335 335 332 332 331
296 294 294 294 299 298 296 293 296 301 302 303 304 305 306 306 306 311 311 311 312 314 314 316 319 321 322 322 325 325 324 325 332 343 349 350 350 349 347 345 343 341 340 338 337 335 333 330 330
291 299 299 298 294 286 295 285 293 298 300 303 304 303 304 306 308 309 309 309 311 312 313 312 316 322 320 321 323 322 322 320 323 326 333 343 349 350 349 347 345 341 342 338 338 338 335 333 328
295 300 297 297 292 289 292 286 290 297 297 300 302 305 305 305 307 307 308 309 310 310 310 316 320 318 319 323 325 322 322 321 320 320 322 327 330 346 350 348 348 345 342 341 338 337 337 336 333
301 297 295 293 289 283 289 289 289 294 298 302 307 307 307 306 305 307 308 308 308 309 309 312 312 315 321 320 320 320 320 323 324 324 325 326 326 327 337 347 347 348 348 342 341 339 339 338 337
296 290 282 281 281 282 293 290 292 299 305 306 304 305 304 304 304 304 305 305 306 305 307 311 310 311 312 319 318 321 322 321 322 324 326 327 327 327 327 338 344 345 347 349 343 343 341 342 341
294 291 283 278 280 285 295 288 293 303 306 307 310 306 304 303 303 304 304 304 304 304 307 310 311 311 314 316 317 317 321 321 320 322 324 326 327 329 330 331 336 342 344 344 346 343 341 343 344
296 291 295 289 289 284 289 293 299 304 304 305 306 305 301 303 303 304 305 305 305 306 306 309 309 308 311 315 318 323 321 318 321 322 323 324 328 330 332 335 335 337 342 342 341 340 339 325 324
298 301 290 289 280 279 287 289 291 298 301 303 303 302 301 301 300 302 302 304 305 306 308 309 308 311 313 316 316 317 316 317 321 319 322 324 326 329 330 332 334 336 330 333 330 329 324 323 323
296 295 294 293 291 281 280 286 299 300 302 301 302 303 300 299 300 301 302 303 305 306 307 307 309 311 310 314 314 314 316 319 319 320 320 323 323 323 323 324 329 333 328 329 331 330 324 323 320
296 296 296 288 285 287 285 288 303 302 301 302 303 303 303 303 303 303 302 302 304 305 306 306 308 310 311 312 314 314 316 317 317 317 315 317 317 321 319 321 322 327 330 325 327 322 322 319 319
Wind_Speed
9 9 7 2 1 2 8 10 9 18 3 4 7 9 14 10 5 6 8 17 21 17 10 14 19 20 19 17 15 14 14 14 14 14 14 14 14 13 13 12 12 11 11 10 10 10 10 10 10
5 7 3 3 2 4 8 9 12 2 4 6 5 14 23 17 14 16 9 16 18 17 9 10 16 20 19 17 15 14 14 13 13 13 13 13 13 13 12 12 11 11 10 10 9 9 9 9 8
8 7 2 3 5 10 6 15 2 4 5 6 5 10 5 4 9 5 19 19 18 13 9 10 14 17 19 18 17 15 14 14 13 13 13 12 11 11 10 10 10 10 10 10 9 8 7 7 6
4 5 3 2 12 14 18 15 2 8 5 5 12 10 5 7 4 11 20 20 18 13 12 12 14 15 16 18 18 18 15 14 14 13 12 12 11 11 10 9 8 8 8 9 8 8 7 6 5
2 2 2 4 9 14 15 13 8 8 2 7 14 9 8 10 10 16 19 19 19 15 13 12 13 15 15 15 17 16 17 16 14 14 13 12 11 10 10 10 9 8 8 8 8 6 6 5 4
3 3 2 4 10 18 16 9 9 6 7 9 15 11 5 8 9 8 13 18 18 17 15 13 14 13 13 14 13 14 14 16 16 15 14 12 11 11 10 9 8 7 7 7 7 6 6 5 4
4 2 6 10 15 12 14 16 3 1 5 6 11 12 2 7 7 7 8 16 17 16 14 11 11 12 14 13 13 12 13 13 16 16 16 15 13 11 11 10 9 8 7 7 6 5 5 5 5
2 1 4 6 11 12 5 7 5 6 5 4 3 4 3 1 5 6 8 18 18 15 15 13 10 9 8 8 14 14 14 14 13 15 16 15 16 13 12 11 10 9 9 8 8 7 6 6 6
2 3 9 11 9 13 13 5 11 3 3 6 5 8 8 6 6 2 3 10 15 13 15 15 13 11 9 8 9 12 16 15 14 13 13 11 5 8 12 11 12 12 11 10 10 9 9 9 8
8 7 12 5 9 10 12 9 6 5 4 2 4 7 7 9 5 6 2 5 11 17 16 16 17 16 12 10 10 8 9 9 10 9 9 6 7 7 9 10 15 15 13 13 12 12 11 9 5
5 12 6 6 13 18 17 10 5 8 4 4 1 1 5 7 4 2 5 2 7 10 14 17 17 16 16 12 8 6 6 6 7 11 11 9 8 8 7 6 7 7 13 6 8 7 5 7 6
8 14 12 14 15 12 6 2 5 6 7 7 3 2 4 4 4 4 6 8 6 5 15 18 18 17 16 9 10 8 7 7 7 9 12 9 7 8 9 6 8 7 6 7 6 5 7 8 8
12 9 17 20 18 11 8 4 4 8 8 7 7 3 3 3 2 4 6 8 9 7 6 16 18 18 15 13 11 10 10 9 10 9 10 9 9 9 8 9 10 10 8 9 9 9 9 9 9
11 16 15 12 11 12 5 6 4 7 9 9 8 5 1 3 5 5 7 8 3 6 9 7 5 6 13 11 13 10 8 9 9 9 11 12 8 8 8 8 9 10 10 11 11 12 11 11 11
8 8 9 9 5 5 6 7 10 10 12 12 10 6 6 6 6 6 5 3 6 4 7 9 4 6 7 8 7 8 7 6 7 9 12 13 10 8 7 5 8 7 8 10 7 8 7 4 7
7 3 3 6 9 12 10 12 12 10 13 14 10 6 4 6 5 4 5 6 6 5 6 9 8 9 8 6 4 3 7 5 5 6 7 14 14 11 11 6 7 6 6 5 8 6 8 8 8
5 3 6 10 13 11 16 7 9 13 4 8 8 6 6 6 5 6 5 5 6 5 6 6 8 8 6 3 5 4 3 3 4 4 5 11 14 14 10 10 7 6 5 6 6 9 7 7 5
6 7 8 12 16 17 14 13 10 7 7 9 9 9 8 7 9 9 9 8 7 9 8 8 6 6 6 3 4 4 3 4 4 4 6 8 10 14 12 8 7 8 7 6 5 7 6 5 8
10 10 8 9 9 6 16 11 10 10 8 9 9 9 10 10 11 9 9 9 9 9 9 7 6 5 4 2 2 3 4 4 5 7 7 10 9 13 14 12 9 10 12 13 9 7 7 7 5
16 13 11 8 7 5 5 5 8 6 5 7 10 10 11 8 8 4 10 8 8 8 7 6 5 4 3 1 2 2 2 4 4 5 8 11 9 15 16 15 15 15 12 13 13 12 10 8 5
8 6 4 5 9 7 7 8 6 5 5 9 10 9 8 11 8 10 9 9 8 7 6 6 4 3 1 3 3 4 4 3 3 4 7 8 12 13 16 16 14 12 13 14 17 14 14 12 6
6 9 8 6 7 6 3 9 7 5 10 16 15 12 11 10 10 9 10 8 9 6 5 3 1 5 2 0 1 1 2 5 4 4 5 7 13 16 16 18 17 17 14 17 15 13 14 14 12
9 9 8 4 4 3 6 3 5 6 12 14 12 21 13 12 12 10 10 9 8 6 4 5 4 0 3 2 1 2 4 4 4 5 8 9 9 13 18 17 19 18 15 16 15 14 17 14 14
6 7 5 4 1 6 5 5 7 10 16 7 5 10 11 12 10 10 8 9 7 6 4 3 4 2 3 3 5 6 7 7 5 6 10 12 11 11 13 18 18 19 17 18 15 18 19 17 17
6 4 3 5 4 6 10 11 12 8 7 6 7 10 10 10 9 8 8 7 6 4 2 3 3 2 5 5 6 7 7 8 8 8 8 12 13 13 13 13 16 16 21 18 16 15 18 17 17
4 4 6 8 5 6 8 5 6 12 9 5 14 13 8 9 7 6 6 6 4 5 4 5 5 4 6 7 8 7 7 4 4 6 8 10 12 14 17 15 13 15 19 19 19 17 13 18 17
6 4 4 4 1 1 5 8 8 8 12 9 9 7 8 8 8 8 8 7 7 7 8 8 6 7 6 7 5 2 3 5 6 6 7 11 14 14 16 15 17 12 13 16 16 12 11 5 11
4 7 4 4 2 4 5 5 3 10 11 8 10 6 5 5 2 2 5 7 7 8 7 8 6 6 5 5 5 5 6 6 4 5 9 11 13 12 15 14 16 15 5 9 12 11 5 10 7
4 5 4 3 7 6 3 6 7 5 4 6 8 9 9 6 5 6 7 8 8 7 7 8 6 6 6 6 5 5 6 6 4 3 6 8 12 10 11 14 16 16 10 12 13 13 17 21 11
6 6 6 0 5 3 3 8 10 12 3 6 11 8 8 7 8 8 8 3 5 2 5 4 5 6 7 6 6 7 6 6 5 4 4 4 6 9 9 11 15 19 13 13 14 15 14 15 12
Wind_Direction
305 308 309 288 53 167 252 253 249 286 19 7 49 51 82 73 107 167 105 118 126 129 150 141 140 135 134 133 135 134 132 132 132 128 124 120 115 114 112 111 110 108 110 108 107 108 107 105 103
303 319 307 260 152 257 264 258 273 150 66 62 44 80 66 77 79 112 101 126 124 126 142 141 143 138 136 135 136 137 136 135 135 133 130 127 126 125 123 120 118 120 119 116 113 111 109 109 105
282 212 303 208 206 234 266 293 241 166 346 357 106 68 45 81 65 77 122 127 117 123 125 142 141 141 141 141 141 141 142 141 141 139 135 131 128 127 126 123 124 129 128 126 124 120 116 118 114
294 327 285 207 260 265 246 257 329 329 88 348 103 76 42 76 96 120 133 129 123 133 128 140 142 145 149 147 149 149 149 148 147 145 140 139 140 136 132 127 130 134 134 133 133 135 135 136 131
285 264 261 254 261 269 266 267 47 240 50 28 91 104 95 89 102 123 137 137 137 133 136 140 145 147 151 155 153 156 154 152 150 149 147 145 146 144 142 142 146 148 146 142 141 142 146 150 155
269 158 291 262 267 259 271 272 127 294 344 82 92 99 100 124 111 136 140 144 140 138 141 146 146 147 150 155 157 157 159 157 154 154 152 151 150 151 149 147 149 152 151 148 149 156 162 173 187
208 329 241 257 262 287 310 336 71 259 327 22 124 111 47 67 83 137 136 123 129 132 133 139 146 149 150 152 155 158 162 165 162 161 160 158 158 158 156 155 157 159 158 158 158 172 180 194 208
188 202 269 268 271 277 324 328 344 38 72 61 60 112 125 135 119 131 144 129 136 138 140 145 143 144 147 160 161 161 164 169 171 169 165 165 161 162 162 163 165 166 167 170 175 188 198 213 229
225 239 244 235 265 276 319 323 290 292 86 64 10 120 152 101 18 28 175 144 141 145 149 153 151 155 161 159 169 166 167 170 170 173 170 157 161 168 171 174 178 178 176 180 188 196 204 214 229
186 205 236 288 290 289 320 308 330 353 324 126 142 295 135 145 173 274 359 211 158 158 164 165 162 164 169 172 166 169 173 175 172 170 170 170 173 177 185 189 186 185 187 187 194 202 207 209 220
231 232 255 239 254 276 293 304 353 2 345 279 156 63 13 31 110 167 316 237 154 162 162 185 169 167 171 180 165 172 176 176 183 180 174 180 190 190 194 187 186 188 193 192 198 204 205 214 214
213 229 239 264 258 266 266 236 216 259 259 285 343 351 75 55 355 331 307 304 301 245 176 179 170 172 177 175 167 172 176 182 188 194 183 187 193 194 192 185 184 187 189 190 195 201 209 221 226
217 217 222 231 244 242 243 233 273 292 290 326 314 278 52 5 288 310 288 296 310 16 18 170 175 177 177 171 171 172 183 185 184 190 196 195 203 203 194 186 186 185 192 192 193 202 210 214 220
224 221 229 224 225 236 215 223 210 283 296 297 296 279 279 314 251 259 274 266 16 76 49 77 137 190 178 175 172 175 181 187 190 189 192 198 207 214 213 200 199 193 200 197 202 196 204 208 208
238 233 235 223 234 247 235 267 228 226 244 250 267 228 226 232 264 253 236 96 124 94 90 75 48 167 202 206 160 151 161 177 198 201 194 194 191 196 217 233 216 212 196 206 218 229 220 210 219
289 249 245 249 210 235 182 237 241 232 223 229 222 225 201 236 239 259 334 137 112 97 92 95 89 62 24 332 305 174 169 167 175 190 190 196 200 195 204 207 213 207 198 202 199 201 224 213 198
261 232 252 261 248 215 202 218 223 240 202 220 161 196 235 251 246 257 258 137 149 147 113 76 91 97 86 40 316 259 252 225 215 181 181 199 200 201 199 211 217 206 196 209 202 219 208 198 197
238 214 239 244 244 235 211 211 222 210 166 183 191 202 213 220 230 232 232 215 71 84 84 71 38 64 93 71 341 261 221 246 243 231 204 188 202 207 211 208 197 204 207 207 202 205 206 195 201
252 265 266 260 261 264 191 191 196 218 192 208 209 204 207 210 224 209 202 102 90 71 76 70 55 357 23 83 58 330 261 227 234 245 226 218 199 209 210 211 203 203 209 219 213 208 203 223 198
243 252 267 286 328 350 306 267 228 219 232 208 209 207 214 214 216 187 108 107 108 120 118 98 91 53 21 2 269 189 239 271 248 233 244 233 208 206 210 212 215 212 218 216 211 210 214 215 182
257 240 274 301 314 327 345 315 266 261 253 259 257 223 207 195 165 129 123 119 106 101 92 89 92 93 38 359 346 332 320 298 291 273 243 237 242 216 213 213 214 216 215 219 218 213 218 221 211
299 296 284 261 295 278 346 288 298 257 261 250 237 220 217 186 141 144 137 124 120 121 102 68 26 123 124 52 47 260 244 281 267 260 278 272 246 239 216 216 216 218 217 223 222 221 213 216 221
221 246 263 253 251 231 269 267 263 260 281 272 252 224 205 180 145 139 130 130 126 120 109 104 95 62 271 290 270 267 273 257 265 289 285 283 284 267 247 223 218 220 223 227 219 223 217 208 215
322 235 288 336 283 272 237 238 274 256 260 298 313 216 137 103 113 117 123 122 117 91 92 128 140 191 237 238 257 250 259 270 277 275 282 285 282 276 280 251 229 225 226 224 222 220 220 219 220
341 62 4 343 318 240 238 253 235 277 301 120 38 85 87 96 102 117 127 108 112 125 227 192 166 234 278 246 260 251 249 257 260 261 269 273 277 277 275 268 251 236 234 231 227 221 224 219 220
301 149 161 220 236 264 336 238 264 332 354 332 177 141 111 112 111 102 115 142 165 224 200 189 189 222 242 245 236 256 277 251 265 279 294 289 280 269 271 275 266 255 245 238 233 234 227 221 221
317 287 195 121 308 343 229 278 277 30 15 12 32 101 128 140 152 175 207 188 206 198 210 191 201 247 264 251 253 284 273 287 291 289 297 302 295 284 272 266 270 267 251 250 263 268 274 55 23
315 320 322 19 112 252 234 286 254 30 353 16 3 14 23 21 350 238 237 225 229 212 205 198 209 217 215 178 181 222 251 265 272 306 304 302 301 301 295 285 283 285 237 222 209 238 140 305 318
305 335 332 165 154 191 210 246 175 83 4 27 349 345 343 345 303 272 258 251 243 218 197 203 199 202 224 222 222 227 239 242 258 274 304 293 303 316 318 312 298 287 239 230 218 215 222 224 178
291 248 222 228 284 236 203 263 267 296 124 3 315 295 290 285 278 267 258 342 354 313 330 277 233 221 217 223 219 234 229 225 216 197 233 285 290 317 316 334 336 291 246 221 211 203 194 199 169